CCA8325 ZSPD-ZLXY

Flight info

Callsign CCA8325
Flight time N/A
Altitude 36100
Route PIK93D PIKAS G330 PIMOL V14 NOBEM W73 VEMEX W163 HFE B208 ZHO H14 SHX
Aircraft A320/M-SDE3FGHIRWY/LB1

Departure

Time 2026-05-04 07:45
Airport Shanghai Pudong International Airport (ZSPD)

Arrival

Time N/A
Airport Xi'an Xianyang International Airport (ZLXY)
Time Latitude Longitude Altitude Speed Heading
2026-05-04 06:34 31.16181 121.80319 23 ft 0 kts 341°
2026-05-04 06:45 31.16181 121.80320 23 ft 0 kts 341°
2026-05-04 07:27 31.16171 121.80323 25 ft 3 kts 344°
2026-05-04 07:27 31.16151 121.80328 23 ft 3 kts 356°
2026-05-04 07:27 31.16132 121.80328 24 ft 3 kts 18°
2026-05-04 07:27 31.16116 121.80318 25 ft 3 kts 58°
2026-05-04 07:28 31.16111 121.80307 24 ft 1 kts 72°
2026-05-04 07:28 31.16111 121.80305 24 ft 0 kts 72°
2026-05-04 07:31 31.16112 121.80309 24 ft 2 kts 72°
2026-05-04 07:31 31.16122 121.80345 23 ft 7 kts 72°
2026-05-04 07:33 31.16070 121.80888 24 ft 14 kts 161°
2026-05-04 07:33 31.15970 121.80926 24 ft 16 kts 162°
2026-05-04 07:33 31.15855 121.80969 22 ft 19 kts 162°
2026-05-04 07:33 31.15724 121.81019 22 ft 21 kts 162°
2026-05-04 07:34 31.15578 121.81075 22 ft 23 kts 162°
2026-05-04 07:34 31.15417 121.81135 22 ft 25 kts 162°
2026-05-04 07:34 31.15271 121.81190 23 ft 21 kts 162°
2026-05-04 07:34 31.15123 121.81246 24 ft 23 kts 162°
2026-05-04 07:35 31.14962 121.81307 24 ft 23 kts 162°
2026-05-04 07:35 31.14821 121.81360 24 ft 22 kts 161°
2026-05-04 07:35 31.14685 121.81411 23 ft 17 kts 162°
2026-05-04 07:35 31.14606 121.81417 23 ft 9 kts 224°
2026-05-04 07:36 31.14572 121.81353 24 ft 9 kts 208°
2026-05-04 07:36 31.14505 121.81346 23 ft 11 kts 204°
2026-05-04 07:38 31.14233 121.80410 24 ft 23 kts 252°
2026-05-04 07:38 31.14196 121.80274 23 ft 18 kts 252°
2026-05-04 07:38 31.14155 121.80127 23 ft 20 kts 252°
2026-05-04 07:38 31.14109 121.79963 23 ft 22 kts 251°
2026-05-04 07:39 31.14063 121.79794 23 ft 18 kts 252°
2026-05-04 07:39 31.14043 121.79702 23 ft 11 kts 260°
2026-05-04 07:39 31.14042 121.79613 25 ft 12 kts 288°
2026-05-04 07:39 31.14107 121.79567 23 ft 13 kts 356°
2026-05-04 07:40 31.14193 121.79547 23 ft 13 kts 342°
2026-05-04 07:40 31.14290 121.79510 23 ft 16 kts 342°
2026-05-04 07:40 31.14402 121.79469 23 ft 18 kts 342°
2026-05-04 07:40 31.14529 121.79422 23 ft 20 kts 342°
2026-05-04 07:41 31.14667 121.79368 23 ft 22 kts 342°
2026-05-04 07:41 31.14818 121.79312 23 ft 24 kts 342°
2026-05-04 07:41 31.14970 121.79254 23 ft 22 kts 341°
2026-05-04 07:41 31.15099 121.79205 23 ft 19 kts 342°
2026-05-04 07:42 31.15232 121.79148 23 ft 22 kts 339°
2026-05-04 07:42 31.15382 121.79095 22 ft 24 kts 345°
2026-05-04 07:42 31.15547 121.79036 22 ft 25 kts 342°
2026-05-04 07:42 31.15717 121.78972 22 ft 27 kts 342°
2026-05-04 07:43 31.15902 121.78902 23 ft 28 kts 342°
2026-05-04 07:43 31.16038 121.78850 24 ft 18 kts 342°
2026-05-04 07:43 31.16135 121.78812 25 ft 9 kts 333°
2026-05-04 07:43 31.16145 121.78744 23 ft 10 kts 252°
2026-05-04 07:44 31.16121 121.78654 25 ft 11 kts 252°
2026-05-04 07:44 31.16103 121.78606 22 ft 5 kts 225°
2026-05-04 07:44 31.16065 121.78621 22 ft 8 kts 158°
2026-05-04 07:44 31.16004 121.78645 22 ft 21 kts 161°
2026-05-04 07:45 31.15622 121.78790 22 ft 91 kts 162°
2026-05-04 07:45 31.14841 121.79083 26 ft 142 kts 162°
2026-05-04 07:45 31.13774 121.79485 97 ft 174 kts 163°
2026-05-04 07:45 31.12634 121.79910 735 ft 173 kts 160°
2026-05-04 07:46 31.11497 121.80315 1440 ft 170 kts 164°
2026-05-04 07:46 31.10368 121.80697 2084 ft 169 kts 165°
2026-05-04 07:46 31.09240 121.81075 2724 ft 169 kts 166°
2026-05-04 07:46 31.08124 121.81449 3290 ft 172 kts 166°
2026-05-04 07:47 31.06890 121.81861 3597 ft 193 kts 166°
2026-05-04 07:47 31.05519 121.82317 3835 ft 216 kts 166°
2026-05-04 07:47 31.03986 121.82828 4122 ft 242 kts 166°
2026-05-04 07:49 30.96536 121.74629 5917 ft 268 kts 261°
2026-05-04 07:49 30.96183 121.72498 5914 ft 266 kts 269°
2026-05-04 07:49 30.96385 121.70371 6064 ft 268 kts 288°
2026-05-04 07:50 30.96855 121.68267 6988 ft 268 kts 285°
2026-05-04 07:50 30.97264 121.66141 7904 ft 270 kts 284°
2026-05-04 07:50 30.97651 121.63996 8784 ft 272 kts 283°
2026-05-04 07:50 30.98037 121.61832 9639 ft 274 kts 283°
2026-05-04 07:51 30.98430 121.59638 10358 ft 282 kts 283°
2026-05-04 07:51 30.98851 121.57308 10581 ft 306 kts 283°
2026-05-04 07:51 30.99305 121.54804 10878 ft 323 kts 283°
2026-05-04 07:51 30.99778 121.52209 11469 ft 330 kts 283°